sat.trackr.live / text

‹ back to catalog

ONEWEB-0374

NORAD 49300 · 2021-090X

PAYLOAD ACTIVE UNKNOWN

§ Identity

Operator
Country
UK
Launch date
2021-10-14
Launch site
VOSTO
Launch vehicle
Mass (kg)
RCS (m²)

Purposes: comms

External: N2YO · Heavens-Above · Gunter

§ Orbital elements

Epoch: 2026-09-19T19:25:15.174624Z

Period
109.55 min
Inclination
87.8909°
Eccentricity
0.0002379
Mean motion
13.14502371 rev/d
Perigee alt
1,204.0 km
Apogee alt
1,207.6 km
Semi-major
7,583.9 km
B*
-6.0121e-5
RAAN
270.8292°
Arg perigee
100.3843°
Mean anomaly
259.7555°
Rev number
23,999

§ Raw data

ONEWEB-03741 49300U 21090X   26262.80920341 -.00000009  00000+0 -60121-4 0  99972 49300  87.8909 270.8292 0002379 100.3843 259.7555 13.14502371239996

JSON: /api/v1/satellites/49300 · /tle

For live sub-satellite position, see the globe view (requires WebGL).

§ Visibility from observer

Set your observer location to see the next 7 days of passes ≥ 10°. The values pass through the URL so the page stays shareable.

No JS? Fill the form by hand. The geolocation button needs JavaScript.